www.pogodaiklimat.ru

Погода и климат >> Архив погоды >> Россия >> Кемеровская область >> Центральный Рудник


ПОГОДА в Центральном Руднике

  • Прогноз погоды в Центральном Руднике
  • Монитор погоды в Центральном Руднике

АРХИВ ПОГОДЫ в Центральном Руднике

Время (UTC), дата Ветер
(напр.,м/с)
 
Видим.   Явления Облачность Т
(С)
Тd
(С)
f
(%)
Тe
(С)
Тes
(С)
Комфортность P
(гПа)
Po
(гПа)
Тmin
(С)
Tmax
(С)
R
(мм)
R24
(мм)
S
(см)
15 13.03 Ю 5
{10}
50 км 3/3 1000 м
[Sc Ci fib]
+3.2 -8.8 41 -1 -1 1023.8 963.0
18 13.03 ЮЗ 4
{11}
50 км 4/0
[Ci fib]
+1.1 -9.2 46 -3 -3 1024.2 963.0
21 13.03 ЮЗ 4
{13}
50 км 4/0
[Ci fib]
+0.4 -7.7 55 -4 -4 1024.5 963.1
00 14.03 ЮЗ 4
{10}
50 км 8/4 1000 м
[Sc Ac As Ci fib]
+0.3 -5.9 63 -5 -5 1025.4 964.0 +0.2 144
03 14.03 ЮЗ 3
{10}
50 км в посл. час ливневой снег {метель} 10/5 600 м
[Cb cap Ac und]
+1.0 -4.6 66 -3 -3 1025.8 964.4 -1.1
06 14.03 ЮЗ 6-11
{12}
50 км {ливн. осадки, метель} 9/4 600 м
[Cb calv Ac As]
+3.1 -4.7 57 -2 -1 1025.8 965.0
09 14.03 ЮЗ 5
{12}
50 км 9/3 1000 м
[Sc Ac As]
+4.3 -4.2 54 0 +1 1026.2 965.5
12 14.03 Ю 2 50 км 10/3 1000 м
[Sc Ac und]
+3.7 -4.3 56 +1 +1 1026.6 965.8 +4.8 0.0
15 14.03 Ю 2 50 км 9/3 1000 м
[Sc Ac As]
+2.9 -4.8 57 0 0 1026.5 965.5
18 14.03 Ю 2 50 км 9/4 1000 м
[Sc Ac trans Ci fib]
+1.9 -5.6 58 -1 -1 1025.0 963.9
21 14.03 ЮВ 1 50 км 9/5 1000 м
[Sc Ac As Ci fib]
+1.3 -6.4 56 0 0 1023.4 962.2
00 15.03 ЮВ 1 50 км 9/4 1000 м
[Sc Ac As Ci fib]
+1.5 -7.5 51 0 0 1022.1 961.1 +0.2 142
03 15.03 Ю 4 50 км 9/1 1000 м
[Sc Ac lent Ci fib]
+6.0 -9.3 32 +3 +4 1020.0 960.1
06 15.03 Ю 3 50 км н/о +9.1 -9.7 25 +8 +8 1018.0 958.8
09 15.03 ЮЗ 6
{10}
50 км 3/0
[Ci fib]
+10.7 -11.1 20 +8 +10 1015.8 957.0
12 15.03 ЮЗ 3 50 км 3/0
[Ci fib]
+8.7 -11.5 23 +7 +7 1015.6 956.4 +11.5
15 15.03 ЮВ 2 50 км 1/0
[Ci fib]
+5.1 -12.7 26 +4 +4 1015.4 955.5
18 15.03 Ю 2 50 км ясно +2.5 -12.3 33 0 0 1014.5 954.1
21 15.03 Ю 2 50 км ясно +2.8 -10.7 36 +1 +1 1013.9 953.6
00 16.03 Ю 1 50 км 8/3 1000 м
[Sc Ac As]
+3.1 -9.8 38 +2 +2 1013.2 953.0 +2.0 137
03 16.03 ЮЗ 6-11
{14}
50 км в посл. час ливневой дождь 10/6 600 м
[Cb cap Ac und]
+3.7 -4.1 57 -1 -1 1012.8 952.8
06 16.03 ЮЗ 3
{12}
4000 м слаб. ливневой снег 10/10 360 м
[Cb cap]
-0.2 -1.4 92 -5 -5 1014.2 953.4
09 16.03 ЮЗ 3 4000 м слаб. ливневой снег 10/10 360 м
[Cb cap]
-1.5 -2.7 92 -7 -7 1014.4 953.2
12 16.03 ЮЗ 2 50 км {ливн. осадки} 8/6 600 м
[Cb cap Ac As]
-1.0 -3.7 82 -5 -5 1014.9 953.9 +5.3 4
15 16.03 ЮЗ 6-11
{11}
20 км слаб. ливневой снег {метель} 9/5 600 м
[Cb cap Ac As Ci fib]
-2.5 -7.1 71 -9 -9 1016.1 954.6
18 16.03 ЮЗ 6-12
{13}
20 км слаб. ливневой снег {метель} 10/5 600 м
[Cb cap Ac As Ci fib]
-5.4 -9.4 73 -13 -13 1017.6 955.3
21 16.03 ЮЗ 3
{12}
20 км слаб. ливневой снег {метель} 10/6 600 м
[Cb cap Ac As Ci fib]
-7.2 -9.8 82 -13 -13 1018.5 955.8
00 17.03 ЮЗ 4
{10}
10 км слаб. ливневой снег {метель} 10/6 600 м
[Cb cap Ac und]
-7.9 -9.7 87 -15 -15 1018.7 955.9 -7.9 0.9 141
03 17.03 ЮЗ 4
{11}
10 км слаб. ливневой снег {метель} 10/8 540 м
[Cb cap Ac und]
-7.4 -9.8 83 -14 -14 1019.2 956.4 -8.0
06 17.03 З 3 20 км слаб. ливневой снег {метель} 9/6 600 м
[Cb cap Ac As Ci fib]
-6.0 -8.9 80 -12 -10 1019.4 956.9
09 17.03 З 3 20 км слаб. ливневой снег 9/6 600 м
[Cb cap Ac As]
-6.3 -10.7 71 -12 -11 1020.5 957.9
12 17.03 СЗ 1 50 км {ливн. осадки} 8/5 600 м
[Cb cap Ac As Ci fib]
-7.9 -12.4 70 -10 -10 1022.8 959.6 -5.0 2
15 17.03 ЮВ 1 20 км слаб. ливневой снег 10/4 600 м
[Cb cap Ac trans Ci fib]
-10.3 -12.0 87 -13 -13 1025.9 962.0
18 17.03 С 1 50 км {ливн. осадки} 10/5 600 м
[Cb cap Ac trans Ci fib]
-14.2 -16.2 85 -17 -17 1028.7 963.6
21 17.03 штиль 0 20 км слаб. ливневой снег 10/6 600 м
[Cb cap Ac As Ci fib]
-13.5 -15.4 86 -14 -14 1030.4 965.4
00 18.03 ЮВ 1 20 км туман местами {ливн. осадки} 8/3 600 м
[Cb cap Ac trans Ci fib]
-15.0 -17.3 83 -18 -18 1033.4 967.8 -15.2 0.3 143
03 18.03 штиль 0 50 км 4/3 600 м
[Cb calv Ci fib]
-8.0 -9.8 87 -9 -6 1033.3 969.5 -16.1
06 18.03 СЗ 1 50 км в посл. час ливневой снег 8/4 600 м
[Cb cap Ac As]
-4.9 -12.3 56 -7 -4 1033.6 970.4
09 18.03 СЗ 2 20 км слаб. ливневой снег 9/5 600 м
[Cb cap Ac As]
-3.6 -11.1 56 -7 -6 1033.4 970.6
12 18.03 ЮЗ 2 50 км {ливн. осадки} 9/4 600 м
[Cb cap Ac trans Ci fib]
-4.8 -11.5 59 -9 -9 1034.1 970.9 -2.5 0.0
15 18.03 Ю 1 50 км 9/3 600 м
[Cb cap Ac As Ci fib]
-9.1 -12.7 75 -11 -11 1035.5 971.3
18 18.03 штиль 0 50 км 8/4 600 м
[Cb cap Ac As Ci fib]
-12.9 -14.6 87 -13 -13 1036.3 971.1
21 18.03 ЮВ 1 50 км 8/4 600 м
[Cb cap Ac As Ci fib]
-11.9 -13.6 87 -14 -14 1035.2 970.3
00 19.03 Ю 1 50 км 9/5 600 м
[Cb cap Ac As Ci fib]
-10.3 -13.1 80 -13 -13 1034.1 969.7 -13.8 141
03 19.03 ЮЗ 2 20 км слаб. ливневой снег 10/4 600 м
[Cb cap Ci fib]
-8.0 -11.4 76 -12 -11 1033.3 969.5
06 19.03 ЮЗ 3 50 км {ливн. осадки} 10/5 600 м
[Cb cap Ac As Ci fib]
-4.7 -10.3 65 -10 -8 1031.9 968.9
09 19.03 З 2 50 км 9/3 600 м
[Cb cap Ac As]
-3.2 -10.0 59 -7 -6 1030.3 967.8
12 19.03 ЮЗ 2 50 км 10/4 600 м
[Cb cap Ac As Ci fib]
-5.1 -9.2 73 -9 -9 1030.9 967.8 -2.8 0.2
15 19.03 ЮВ 1 20 км слаб. ливневой снег 9/4 600 м
[Cb cap Ac As Ci fib]
-7.0 -9.4 83 -9 -9 1032.1 968.6
18 19.03 штиль 0 20 км слаб. ливневой снег 10/5 600 м
[Cb cap Ac und]
-8.9 -10.6 87 -9 -9 1033.3 969.3
21 19.03 штиль 0 20 км слаб. ливневой снег 9/5 600 м
[Cb cap Ac As]
-10.1 -11.7 88 -10 -10 1033.7 969.3
00 20.03 С 1 20 км слаб. ливневой снег 10/4 600 м
[Cb cap Ac As Ci fib]
-10.5 -12.3 87 -13 -13 1035.0 970.5 -11.0 0.2 141
03 20.03 штиль 0 20 км слаб. ливневой снег 10/6 600 м
[Cb cap Ac As Ci fib]
-6.0 -8.8 81 -7 -6 1035.0 971.5
06 20.03 З 1 20 км слаб. ливневой снег 10/5 600 м
[Cb cap Ac und]
-2.7 -8.6 64 -5 -3 1034.5 971.8
09 20.03 СЗ 1 50 км {ливн. осадки} 10/4 600 м
[Cb cap Ac und]
-2.6 -9.6 59 -4 -3 1034.3 971.6
12 20.03 ЮЗ 2 50 км {ливн. осадки} 10/5 600 м
[Cb cap Ac As Ci fib]
-3.7 -8.0 72 -8 -8 1035.0 972.1 -2.2 0.3

 

Местоположение метеостанции Центральный Рудник (Кемеровская область, Россия): широта 55.20 долгота 87.65 высота над уровнем моря 498 м.

В архиве по умолчанию представлена погода в Центральном Руднике за последнюю неделю. Архивные данные за месяц целиком и за предыдущие месяцы, начиная с января 2011 года, Вы можете получить, выбрав интересующий диапазон дат из раскрывающегося списка и нажав кнопку "Ввод!".


*Определитесь, кто Вы:
робот инопланетянин человек

Внимание! Время в таблицах - всемирное. Для получения местного времени необходимо прибавить поправку, которая равна 7 ч.

Смотрите также архив погоды в соседних городах и на ближайших метеорологических станциях:

Погода в Крапивино (Кемеровская область, Россия) (57 км)
Погода в Тисуле (Кемеровская область, Россия) (74 км)
Погода в Ненастной (Хакасия, Россия) (90 км)
Погода в Кемерово (Кемеровская область, Россия) (91 км)
Погода в Кемерово АМС (Кемеровская область, Россия) (94 км)
Погода в Барзасе (Кемеровская область, Россия) (103 км)
Погода в Шарыпово (Красноярский край, Россия) (105 км)
Погода в Ленинск-Кузнецком (Кемеровская область, Россия) (108 км)
Погода в Мариинске (Кемеровская область, Россия) (109 км)
Погода в Тяжине (Кемеровская область, Россия) (116 км)

Пояснения к столбцам:

Ветер - указаны скорость ветра в м/с - средняя за 10 мин, порывы в срок и между сроками (в фигурных скобках) и направление, откуда дует ветер: С - северный, СВ - северо-восточный, В - восточный, ЮВ - юго-восточный, Ю - южный, ЮЗ - юго-западный, З - западный, СЗ - северо-западный.
Видимость - горизонтальная дальность видимости в метрах или километрах. При видимости от 1 до 10 км при отсутствии осадков обычно наблюдается дымка, при ухудшении видимости до 1 км и менее - туман. В сухую погоду видимость может ухудшаться дымом, пылью или мглою.
Явления - указаны атмосферные явления, наблюдавшиеся в срок или в последний час перед сроком; фигурными скобками обозначены явления, наблюдавшиеся между сроками (за 1-3 часа до срока); квадратными скобками обозначены град или гололедные отложения с указанием их диаметра в мм.
Облачность - указаны через наклонную черту общая и нижняя облачность в баллах и высота нижней границы облаков в метрах; квадратными скобками обозначены формы облаков: Ci - перистые, Cs - перисто-слоистые, Cc - перисто-кучевые, Ac - высококучевые, As - высокослоистые, Sc - слоисто-кучевые, Ns - слоисто-дождевые, Cu - кучевые, Cb - кучево-дождевые. Подробнее классификацию облаков см. в Атласе облаков (PDF).
T - Температура воздуха - температура, измеренная на высоте 2 м над землей.
Td - Температура точки росы - температура, при понижении до которой содержащийся в воздухе водяной пар достигнет насыщения.
f - Относительная влажность воздуха - влажноcть воздуха, измеренная на высоте 2 м над землей.
Te - Эффективная температура - температура, которую ощущает одетый по сезону человек в тени. Характеристика душности погоды. При расчете учитывается влияние влажности воздуха и скорости ветра на теплоощущения человека.
Tes - Эффективная температура на солнце - температура, которую ощущает человек, с поправкой на солнечный нагрев. Характеристика знойности погоды. Зависит от высоты солнца над горизонтом, облачности и скорости ветра. Ночью, в пасмурную погоду, а также при ветре 12 м/с и более поправка равна нулю.
P - Атмосферное давление - приведенное к уровню моря атмосферное давление.
Po - Атмосферное давление - измеренное на уровне метеостанции атмосферное давление.
Tmin - Минимальная температура - минимум температуры воздуха на высоте 2 м над землей.
Tmax - Максимальная температура - максимум температуры воздуха на высоте 2 м над землей.
R - Количество осадков - Количество выпавших осадков за период времени, мм. При наведении курсора мыши на число - период времени, за который выпало указанное количество осадков.
R24 - Количество осадков - Количество выпавших осадков за 24 часа, мм.
S - Снежный покров - Высота снежного покрова, см. При наведении курсора мыши на число - состояние снежного покрова и степень покрытия местности в баллах.